Tracking 31027 objects as of 19-Jul-2025
HD Live streaming from Space Station
objects crossing your sky now

ONEWEB-0554

Track ONEWEB-0554 now!
10-day predictions
ONEWEB-0554 is classified as:


NORAD ID: 56056
Int'l Code: 2023-043L
Perigee: 1,203.3 km
Apogee: 1,206.5 km
Inclination: 87.9 °
Period: 109.4 minutes
Semi major axis: 7575 km
RCS: Unknown
Launch date: March 26, 2023
Source: United Kingdom (UK)
Launch site: SRIHARIKOTA (SRI)
Your satellite tracking list
Your tracking list is empty




NASA's NSSDC Master Catalog

Two Line Element Set (TLE):
1 56056U 23043L   25199.54261567  .00000056  00000-0  11201-3 0  9995
2 56056  87.9050 295.3050 0002111 108.1729 251.9632 13.16594542115050
Source of the keplerian elements: AFSPC